Weather History for Massena, NY

Change the Weather History Date:

Sunday, January 12, 2014

  Actual Average Record
Temperature  
Mean Temperature 37 °F 14 °F  
Max Temperature 41 °F 24 °F 50 °F (2013)
Min Temperature 33 °F 5 °F -32 °F (1971)
Degree Days  
Heating Degree Days 28 51  
Month to date heating degree days 616 599  
Since 1 July heating degree days 3827 3698  
Moisture  
Dew Point 28 °F    
Average Humidity 67    
Maximum Humidity 82    
Minimum Humidity 52    
Precipitation  
Precipitation T in 0.08 in 0.70 in (1991)
Month to date precipitation 1.29 0.91  
Year to date precipitation 1.29 0.91  
Sea Level Pressure  
Sea Level Pressure 29.63 in    
Wind  
Wind Speed 14 mph (SW)    
Max Wind Speed 28 mph    
Max Gust Speed 38 mph    
Visibility 10 miles    
Events Rain , Snow    
T = Trace of Precipitation, MM = Missing Value Source: NWS Daily Summary

Daily Weather History Graph

Daily Weather History Graph

Search for Another Location

Airport:

Trip Planner

Search our weather history database for the weather conditions in past years. The results will help you decide how hot, cold, wet, or windy it might be!

Date:

Astronomy

Jan. 12, 2014 Rise Set
Actual Time 7:35 AM EST 4:40 PM EST
Civil Twilight 7:02 AM EST 5:13 PM EST
Nautical Twilight 6:25 AM EST 5:49 PM EST
Astronomical Twilight 5:50 AM EST 6:25 PM EST
Moon 2:07 PM EST (1/12) 4:30 AM EST (1/12)
Length of Visible Light 10h 11m
Length of Day
9h 05m
Waxing Gibbous, 89% of the Moon is Illuminated
Jan 12
Waxing Gibbous
Jan 15
Full
Jan 24
Last Quarter
Jan 30
New
Feb 6
First Quarter

Hourly Weather History & Observations

Time (EST) Temp. Windchill Dew Point Humidity Pressure Visibility Wind Dir Wind Speed Gust Speed Precip Events Conditions
12:11 AM 41.0 °F 31.6 °F 35.6 °F 81% 29.25 in 10.0 mi SW 20.7 mph 36.8 mph N/A   Overcast
12:53 AM 39.9 °F 29.5 °F 34.0 °F 79% 29.28 in 10.0 mi SW 24.2 mph 28.8 mph N/A   Overcast
1:53 AM 39.0 °F 29.9 °F 33.1 °F 79% 29.30 in 10.0 mi SW 17.3 mph 28.8 mph N/A   Overcast
2:53 AM 37.9 °F 27.1 °F 32.0 °F 79% 29.34 in 10.0 mi SW 23.0 mph 29.9 mph 0.00 in   Overcast
3:53 AM 37.9 °F 28.9 °F 30.9 °F 76% 29.37 in 10.0 mi WSW 16.1 mph 29.9 mph 0.00 in Rain Light Rain
4:53 AM 37.0 °F 27.0 °F 30.9 °F 79% 29.40 in 10.0 mi SW 18.4 mph 31.1 mph 0.00 in   Overcast
5:53 AM 37.9 °F 28.9 °F 30.0 °F 73% 29.43 in 10.0 mi WSW 16.1 mph 26.5 mph 0.00 in   Overcast
6:39 AM 37.4 °F 27.8 °F 28.4 °F 70% 29.47 in 10.0 mi WSW 17.3 mph 26.5 mph N/A   Overcast
6:53 AM 37.0 °F 27.7 °F 28.9 °F 73% 29.50 in 10.0 mi WSW 16.1 mph 28.8 mph N/A   Overcast
7:53 AM 37.0 °F 28.9 °F 28.9 °F 73% 29.55 in 10.0 mi WSW 12.7 mph - 0.00 in   Overcast
8:05 AM 37.4 °F 28.5 °F 28.4 °F 70% 29.54 in 10.0 mi SW 15.0 mph 21.9 mph 0.00 in   Overcast
8:36 AM 35.6 °F 27.5 °F 30.2 °F 81% 29.57 in 4.0 mi WSW 11.5 mph 21.9 mph 0.00 in Snow Light Snow
8:53 AM 35.1 °F 26.9 °F 30.9 °F 85% 29.59 in 8.0 mi SW 11.5 mph - 0.00 in Snow Light Snow
9:53 AM 37.0 °F 27.7 °F 30.0 °F 76% 29.62 in 10.0 mi SW 16.1 mph - 0.00 in   Overcast
10:53 AM 37.9 °F 29.2 °F 28.9 °F 70% 29.65 in 10.0 mi WSW 15.0 mph 25.3 mph N/A   Overcast
11:53 AM 37.9 °F 29.2 °F 28.0 °F 68% 29.65 in 10.0 mi WSW 15.0 mph 23.0 mph N/A   Overcast
12:53 PM 37.9 °F 29.6 °F 26.1 °F 62% 29.65 in 10.0 mi WSW 13.8 mph 31.1 mph N/A   Overcast
1:53 PM 37.9 °F 27.6 °F 26.1 °F 62% 29.68 in 10.0 mi WSW 20.7 mph 29.9 mph N/A   Overcast
2:53 PM 37.9 °F 28.2 °F 23.0 °F 55% 29.73 in 10.0 mi WSW 18.4 mph 28.8 mph N/A   Overcast
3:53 PM 37.9 °F 30.5 °F 21.9 °F 53% 29.78 in 10.0 mi West 11.5 mph 20.7 mph N/A   Overcast
4:53 PM 37.0 °F 27.4 °F 21.9 °F 54% 29.82 in 10.0 mi WSW 17.3 mph 27.6 mph N/A   Overcast
5:53 PM 36.0 °F 29.0 °F 27.0 °F 70% 29.86 in 10.0 mi SW 9.2 mph - N/A   Overcast
6:53 PM 37.0 °F 29.8 °F 25.0 °F 62% 29.89 in 10.0 mi WSW 10.4 mph - N/A   Overcast
7:53 PM 36.0 °F 30.3 °F 23.0 °F 59% 29.91 in 10.0 mi SW 6.9 mph - N/A   Overcast
8:53 PM 35.1 °F 28.6 °F 27.0 °F 72% 29.92 in 10.0 mi SW 8.1 mph - N/A   Overcast
9:53 PM 35.1 °F 27.9 °F 27.0 °F 72% 29.92 in 10.0 mi SW 9.2 mph - N/A   Overcast
10:53 PM 36.0 °F 29.0 °F 26.1 °F 67% 29.94 in 10.0 mi SW 9.2 mph - N/A   Overcast
11:53 PM 33.1 °F 26.1 °F 27.0 °F 78% 29.94 in 10.0 mi SSW 8.1 mph - N/A   Clear